Simultaneous Nadir Overpasses (SNOs) Predictions

Prediction of SNOs between GOES-16 and METOP-C Satellite Orbit:

Table of predicted SNOs for the next 14.0 days since TLE Epoch: 9/27/2019
Index Date Time (GOES-16) GOES-16 Lat,Lon METOP-C Lat,Lon Distance(km) Time Diff (sec)
1 09/29/2019 02:44:17 -0.00, -75.19 -0.78, -78.59 387.78 80
2 09/30/2019 02:26:18 -0.00, -75.19 0.34, -73.59 181.40 80
3 10/01/2019 14:45:09 0.00, -75.20 0.67, -78.15 336.99 80
4 10/02/2019 14:21:50 0.00, -75.20 -0.44, -73.16 232.41 80
5 10/04/2019 02:43:30 0.00, -75.20 -0.58, -77.76 291.77 80
6 10/05/2019 02:20:11 0.00, -75.20 0.53, -72.76 277.96 80
7 10/06/2019 14:41:42 -0.00, -75.22 0.49, -77.32 239.59 80
8 10/07/2019 14:18:22 -0.00, -75.23 -0.62, -72.33 330.56 80
9 10/09/2019 02:40:03 -0.00, -75.24 -0.39, -76.93 192.25 80
10 10/10/2019 02:16:43 -0.00, -75.25 0.73, -71.93 378.37 80
11 10/11/2019 14:38:16 0.00, -75.29 0.25, -76.50 137.92 80




NCC Satellite Simultaneous Nadir Overpasses (SNOs) Prediction Service
